Deer Valley, USA 16 day weather forecast

Slopes altitude range 2000 m - 2915m

Number of lifts: 22 Pistes: 100km

In some cases the lift and piste totals shown are for the ski domain (e.g. Three Valleys) rather than individual resort (e.g. Courchevel)

Overview

The 16 day weather forecast is fully updated 4 times every day.

    • Thu 21 FEB 2019
    • Thu 21
    • -15C -7C
    • Fri 22 FEB 2019
    • Fri 22
    • -12C -11C
    • Sat 23 FEB 2019
    • Sat 23
    • -19C -18C
    • Sun 24 FEB 2019
    • Sun 24
    • -13C -12C
    • Mon 25 FEB 2019
    • Mon 25
    • -9C -8C
    • Tue 26 FEB 2019
    • Tue 26
    • -4C -4C
    • Wed 27 FEB 2019
    • Wed 27
    • -3C -1C
    • Thu 28 FEB 2019
    • Thu 28
    • -2C -2C
    • Fri 01 MAR 2019
    • Fri 01
    • -9C -5C
    • Sat 02 MAR 2019
    • Sat 02
    • 1C 1C
    • Sun 03 MAR 2019
    • Sun 03
    • -5C -4C
    • Mon 04 MAR 2019
    • Mon 04
    • -3C 0C
    • Tue 05 MAR 2019
    • Tue 05
    • 1C 2C
    • Wed 06 MAR 2019
    • Wed 06
    • -8C -2C
    • Thu 07 MAR 2019
    • Thu 07
    • -4C 0C
    • Fri 08 MAR 2019
    • Fri 08
    • -11C -1C

Date:

Time Type 0°C level Temp Chill Snow Cloud Speed Gust Dir Press
18:00 1069m -7°C -7_5 0cm 81% 5mph 7mph 1010mB
21:00 1346m -7°C -7_5 1cm 93% 5mph 7mph 1009mB
0:00 1185m -7°C -7_5 1cm 94% 5mph 8mph 1008mB
3:00 629m -10°C -10_6 1cm 98% 6mph 8mph 1010mB
6:00 500m -11°C -11_7 1cm 99% 7mph 10mph 1011mB
9:00 391m -12°C -12_6 1cm 96% 6mph 7mph 1012mB
12:00 350m -11°C -11_5 2cm 98% 5mph 7mph 1014mB
15:00 300m -12°C -12_5 1cm 99% 5mph 6mph 1017mB
18:00 790m -9°C -9_5 2cm 94% 5mph 5mph 1017mB
21:00 1005m -9°C -9_6 1cm 74% 6mph 7mph 1017mB
0:00 827m -9°C -9_6 1cm 82% 6mph 7mph 1018mB
3:00 0m -15°C -15_3 0cm 61% 3mph 3mph 1024mB
6:00 0m -19°C -19_2 0cm 50% 2mph 2mph 1027mB
9:00 0m -19°C -19_2 0cm 28% 2mph 2mph 1029mB
12:00 0m -18°C -18_3 0cm 25% 3mph 3mph 1029mB
15:00 0m -17°C -17_4 0cm 14% 4mph 4mph 1031mB
18:00 851m -9°C -9_6 0cm 27% 6mph 6mph 1028mB
21:00 1249m -9°C -9_7 0cm 46% 7mph 9mph 1025mB
0:00 1203m -9°C -9_6 0cm 54% 6mph 9mph 1025mB
3:00 468m -11°C -11_5 0cm 68% 5mph 7mph 1029mB
6:00 221m -13°C -13_5 0cm 60% 5mph 6mph 1031mB
9:00 247m -13°C -13_6 0cm 50% 6mph 7mph 1031mB
12:00 315m -12°C -12_6 0cm 53% 6mph 7mph 1030mB
15:00 546m -11°C -11_6 0cm 63% 6mph 7mph 1030mB
18:00 1622m -4°C -4_8 0cm 54% 8mph 10mph 1026mB
21:00 1862m -4°C -4_8 0cm 26% 8mph 12mph 1022mB
0:00 1724m -4°C -4_6 0cm 36% 6mph 9mph 1021mB
3:00 966m -8°C -8_7 0cm 52% 7mph 8mph 1023mB
6:00 767m -9°C -9_7 0cm 38% 7mph 8mph 1024mB
9:00 872m -9°C -9_7 0cm 59% 7mph 8mph 1023mB
12:00 994m -8°C -8_6 0cm 65% 6mph 7mph 1022mB
15:00 1217m -6°C -6_6 1cm 91% 6mph 8mph 1022mB
18:00 1804m -2°C -2_8 2cm 88% 8mph 12mph 1018mB
21:00 2061m -2°C -2_8 0cm 81% 8mph 13mph 1015mB
0:00 1968m -2°C -2_5 0cm 81% 5mph 8mph 1015mB
3:00 1554m -4°C -4_6 0cm 75% 6mph 8mph 1017mB
6:00 1570m -4°C -4_6 1cm 82% 6mph 7mph 1018mB
9:00 1542m -4°C -4_6 1cm 90% 6mph 8mph 1018mB
12:00 1564m -4°C -4_6 1cm 92% 6mph 7mph 1019mB
15:00 1608m -4°C -4_5 1cm 86% 5mph 6mph 1020mB
18:00 2071m -1°C -1_7 1cm 87% 7mph 12mph 1019mB
21:00 2219m -1°C -1_7 1cm 95% 7mph 11mph 1017mB
0:00 2316m -1°C -1_6 1cm 93% 6mph 9mph 1016mB
3:00 2044m -1°C -1_5 1cm 99% 5mph 6mph 1019mB
6:00 1953m -2°C -2_6 2cm 99% 6mph 8mph 1020mB
9:00 1900m -2°C -2_6 2cm 99% 6mph 9mph 1020mB
12:00 1802m -1°C -1_6 3cm 96% 6mph 8mph 1021mB
15:00 1854m -2°C -2_5 2cm 95% 5mph 7mph 1022mB
18:00 2116m 0°C 0_6 4cm 95% 6mph 10mph 1021mB
21:00 2241m 0°C 0_5 1cm 86% 5mph 7mph 1019mB
0:00 2408m 0°C 0_5 1cm 78% 5mph 6mph 1018mB
3:00 1944m -2°C -2_6 0cm 51% 6mph 7mph 1019mB
6:00 1913m -2°C -2_6 0cm 62% 6mph 8mph 1018mB
9:00 1879m -2°C -2_7 1cm 94% 7mph 8mph 1017mB
12:00 1882m -2°C -2_7 4cm 97% 7mph 12mph 1016mB
15:00 1896m -2°C -2_6 7cm 100% 6mph 10mph 1017mB
18:00 1980m -1°C -1_8 15cm 100% 8mph 14mph 1014mB
21:00 2233m -1°C -1_9 3cm 99% 9mph 19mph 1010mB
0:00 2572m -1°C -1_14 0cm 99% 14mph 32mph 1008mB
3:00 2259m -1°C -1_29 2cm 100% 29mph 51mph 1011mB
6:00 1556m -5°C -5_16 2cm 96% 16mph 37mph 1018mB
9:00 1022m -9°C -9_13 0cm 90% 13mph 21mph 1021mB
12:00 990m -5°C -5_13 0cm 71% 13mph 21mph 1022mB
15:00 1663m -5°C -5_14 0cm 77% 14mph 30mph 1022mB
18:00 2267m -1°C -1_11 1cm 78% 11mph 19mph 1018mB
21:00 2531m -1°C -1_16 1cm 65% 16mph 33mph 1014mB
0:00 2843m -1°C -1_15 1cm 63% 15mph 31mph 1011mB
3:00 2945m 1°C 1_16 1cm 73% 16mph 29mph 1010mB
6:00 2591m 1°C 1_15 3cm 86% 15mph 36mph 1008mB
9:00 2664m 1°C 1_19 4cm 100% 19mph 44mph 1006mB
12:00 2514m 1°C 1_17 7cm 99% 17mph 43mph 1004mB
15:00 2451m 1°C 1_16 6cm 100% 16mph 38mph 1004mB
18:00 2397m 1°C 1_17 12cm 100% 17mph 32mph 1006mB
21:00 2142m -2°C -2_19 4cm 100% 19mph 34mph 1009mB
0:00 2147m -2°C -2_15 5cm 86% 15mph 29mph 1011mB
3:00 1713m -4°C -4_9 0cm 26% 9mph 12mph 1016mB
6:00 1625m -5°C -5_9 0cm 17% 9mph 10mph 1018mB
9:00 1609m -5°C -5_10 0cm 6% 10mph 12mph 1019mB
12:00 1640m -4°C -4_10 0cm 32% 10mph 14mph 1019mB
Morning 0.255208mm 0.0625 2449m -4°C -4_15 2cm 83% 15mph 29mph 1016mB
Afternoon 0.0625mm 0.0625 1968m 0°C 0_10 1cm 56% 10mph 16mph 1022mB
Morning 0.00520833mm 0 3211m -3°C -3_15 0cm 40% 15mph 28mph 1013mB
Afternoon 0.03125mm 0 2838m 2°C 2_14 0cm 91% 14mph 28mph 1011mB
Morning 0.380208mm 0.625 2129m -2°C -2_6 5cm 87% 6mph 11mph 1017mB
Afternoon 0.015625mm 0.0625 1172m -2°C -2_5 0cm 28% 5mph 7mph 1026mB
Morning 0mm 0 2578m -8°C -8_8 0cm 27% 8mph 12mph 1019mB
Afternoon 0mm 0 1935m 0°C 0_12 0cm 83% 12mph 19mph 1015mB
Morning 0.260417mm 0.4375 2199m -4°C -4_13 4cm 83% 13mph 24mph 1011mB
Afternoon 0.171875mm 0.1875 676m -1°C -1_8 2cm 46% 8mph 9mph 1024mB
Morning 0mm 0 2001m -12°C -12_3 0cm 27% 3mph 5mph 1015mB
Afternoon 0.208333mm 0 1938m -3°C -3_8 2cm 87% 8mph 18mph 1005mB

16 day outlook at a glance

Forecast issued: 21/02/2019 17:40:29

Chat

Your comments and questions. In a resort? Let us know what it's like!


Characters left 250

For terms and conditions see Readers Comments on the Cookie and privacy policy page.